Date,TemperatureHighF,TemperatureAvgF,TemperatureLowF,DewpointHighF,DewpointAvgF,DewpointLowF,HumidityHigh,HumidityAvg,HumidityLow,PressureMaxIn,PressureMinIn,WindSpeedMaxMPH,WindSpeedAvgMPH,GustSpeedMaxMPH,PrecipitationSumIn
2013-1-1,55,47,39,54,42,31,97,83,65,30.26,29.96,14,6,19,0.06
2013-1-2,46,38,33,31,29,28,86,70,50,30.35,30.25,10,5,16,0.00
2013-1-3,45,39,29,32,30,25,90,71,56,30.47,30.34,10,4,14,0.00
2013-1-4,44,40,36,39,36,30,93,84,58,30.53,30.38,8,4,10,0.13
2013-1-5,56,45,39,45,40,37,94,84,58,30.39,30.21,8,3,10,0.01
2013-1-6,59,44,34,37,33,29,95,68,32,30.43,30.29,11,4,13,0.01
2013-1-7,55,44,31,41,35,26,90,71,50,30.34,30.07,12,5,14,0.00
2013-1-8,51,49,47,50,47,41,96,92,72,30.07,29.88,9,5,16,0.79
2013-1-9,57,54,52,55,53,50,96,94,91,30.01,29.81,18,4,20,0.94
2013-1-10,63,52,46,51,47,41,96,82,57,30.03,29.94,18,4,23,0.01
2013-1-11,71,58,45,59,52,43,94,83,60,29.97,29.76,14,5,23,0.01
2013-1-12,74,61,42,67,56,33,97,83,57,29.92,29.61,23,7,25,0.01
2013-1-13,49,41,36,33,28,25,72,61,45,30.21,29.93,21,10,25,0.00
2013-1-14,48,39,32,30,26,22,70,61,46,30.28,30.11,13,8,19,0.00
2013-1-15,40,37,34,34,30,23,91,78,63,30.27,30.13,17,9,22,0.01
2013-1-16,52,38,27,32,24,15,79,59,24,30.36,30.20,14,3,20,0.00
2013-1-17,64,46,31,38,34,27,90,65,34,30.49,30.31,10,3,13,0.00
2013-1-18,64,48,33,43,36,30,89,66,33,30.51,30.29,10,3,13,0.00
2013-1-19,66,53,44,48,44,37,90,71,47,30.29,30.11,14,5,16,0.00
2013-1-20,74,54,38,48,42,36,95,70,27,30.24,30.05,7,3,12,0.00
2013-1-21,68,53,41,46,42,39,94,69,40,30.24,30.11,8,3,11,0.00
2013-1-22,70,55,40,52,45,37,90,71,53,30.29,30.16,11,3,15,0.00
2013-1-23,73,60,49,57,53,47,95,79,56,30.29,30.15,15,5,17,0.00
2013-1-24,80,64,52,62,56,50,96,77,47,30.20,30.03,10,3,15,0.01
2013-1-25,80,63,50,59,52,44,78,67,48,30.14,29.96,13,7,19,0.00
2013-1-26,61,54,48,57,50,43,94,87,78,30.16,30.05,13,3,13,0.00
2013-1-27,74,66,58,63,60,56,92,81,60,30.06,29.89,20,10,27,0.00
2013-1-28,74,69,65,65,63,62,92,83,69,29.97,29.79,20,10,28,0.00
2013-1-29,77,67,54,65,53,20,89,66,26,29.81,29.45,21,12,39,0.01
2013-1-30,57,50,40,31,23,12,67,37,18,30.20,29.74,23,8,29,0.00
2013-1-31,70,50,33,40,28,18,74,47,16,30.29,30.14,11,2,18,0.00
2013-2-1,69,55,42,44,38,32,78,54,34,30.34,30.13,14,5,22,0.00
2013-2-2,71,59,49,52,46,36,87,65,41,30.29,30.15,11,4,17,0.00
2013-2-3,68,57,43,49,40,30,83,55,26,30.33,29.98,12,6,18,0.00
2013-2-4,74,64,55,58,54,50,88,73,47,29.97,29.75,14,5,21,0.00
2013-2-5,76,60,45,54,47,41,92,67,31,29.98,29.83,11,3,12,0.00
2013-2-6,74,64,58,61,57,53,90,78,60,29.95,29.77,13,5,21,0.00
2013-2-7,84,67,58,61,53,38,93,66,22,30.07,29.82,25,8,28,0.00
2013-2-8,67,57,47,46,36,24,74,48,20,30.21,30.07,19,7,26,0.00
2013-2-9,66,58,54,64,53,37,96,86,50,30.07,29.74,18,11,24,0.00
2013-2-10,68,60,50,64,44,26,93,62,21,29.98,29.66,32,5,47,0.22
2013-2-11,58,53,49,48,45,39,90,77,50,30.06,29.94,16,5,19,0.55
2013-2-12,72,56,44,54,44,23,96,72,20,30.04,29.79,22,7,28,0.01
2013-2-13,60,47,34,39,35,28,89,65,30,30.16,30.01,10,3,22,0.00
2013-2-14,71,58,44,45,40,35,78,55,28,30.11,29.94,14,5,15,0.00
2013-2-15,57,50,41,44,36,24,81,60,40,30.39,30.03,17,7,21,0.00
2013-2-16,65,54,36,42,32,27,72,45,25,30.46,30.19,12,4,14,0.00
2013-2-17,68,57,44,51,41,33,82,57,32,30.18,29.91,23,9,31,0.00
2013-2-18,80,68,60,58,48,23,82,57,13,29.91,29.79,21,11,25,0.00
2013-2-19,61,59,58,38,36,35,46,43,39,30.09,30.05,17,10,17,0.00
2013-2-20,61,54,52,60,45,35,97,73,46,30.08,29.61,24,13,26,0.02
2013-2-21,74,64,50,63,41,19,96,51,13,29.82,29.53,23,8,30,0.00
2013-2-22,58,48,38,40,34,28,81,58,41,30.06,29.79,12,6,18,0.00
2013-2-23,67,51,37,39,33,25,83,53,22,30.06,29.86,13,4,18,0.00
2013-2-24,72,59,43,58,46,36,85,64,45,29.89,29.53,21,11,26,0.00
2013-2-25,63,53,45,59,38,25,89,58,30,29.83,29.50,29,11,38,0.08
2013-2-26,63,50,37,44,33,28,73,53,31,29.95,29.81,12,5,21,0.00
2013-2-27,61,51,41,40,31,24,72,48,25,30.23,29.82,16,7,27,0.00
2013-2-28,61,48,37,35,29,23,75,50,25,30.33,30.18,12,5,20,0.00
2013-3-1,67,50,33,33,28,23,85,49,20,30.29,30.13,17,4,24,0.00
2013-3-2,62,49,38,39,32,27,75,54,31,30.43,30.23,16,5,20,0.00
2013-3-3,74,59,42,45,37,32,78,48,24,30.23,29.84,21,8,27,0.00
2013-3-4,88,68,56,50,42,18,77,45,8,29.84,29.62,14,5,21,0.00
2013-3-5,66,55,42,46,24,13,64,33,15,30.36,29.69,32,9,42,0.00
2013-3-6,64,50,35,34,24,16,67,39,18,30.45,30.20,12,5,15,0.00
2013-3-7,70,58,47,54,42,27,79,56,40,30.21,30.04,19,10,27,0.00
2013-3-8,64,61,58,61,58,54,96,89,78,30.10,29.95,20,11,26,0.01
2013-3-9,70,66,60,64,62,58,94,87,80,29.95,29.59,23,12,33,1.28
2013-3-10,61,56,46,58,41,33,95,59,36,30.09,29.70,19,8,31,0.01
2013-3-11,66,52,38,42,31,22,83,50,24,30.17,29.98,12,5,16,0.00
2013-3-12,78,60,46,45,37,31,78,45,18,30.22,30.00,26,6,29,0.00
2013-3-13,73,61,51,48,39,33,60,45,30,30.40,30.23,16,7,22,0.00
2013-3-14,75,63,52,52,47,39,82,57,38,30.33,30.16,15,7,19,0.00
2013-3-15,79,66,56,55,52,47,90,62,37,30.18,29.91,19,8,27,0.00
2013-3-16,81,70,59,61,55,50,82,61,41,29.93,29.65,20,11,30,0.00
2013-3-17,80,70,64,61,59,54,85,69,45,29.75,29.60,21,6,26,0.00
2013-3-18,81,70,59,63,54,46,96,63,31,29.91,29.65,13,5,19,0.00
2013-3-19,83,66,55,59,51,45,71,61,41,29.96,29.77,20,6,23,0.00
2013-3-20,69,61,49,48,42,36,84,54,30,30.23,29.99,16,8,23,0.40
2013-3-21,72,61,56,60,48,41,81,63,53,30.00,29.56,24,10,29,0.00
2013-3-22,76,65,52,63,57,46,95,76,51,29.75,29.57,13,5,21,0.00
2013-3-23,77,58,50,59,50,46,91,78,49,29.77,29.57,10,4,14,0.00
2013-3-24,56,49,40,47,30,25,79,49,31,30.16,29.91,28,13,37,0.00
2013-3-25,58,48,36,28,22,15,58,38,22,30.38,30.15,15,8,22,0.00
2013-3-26,64,51,36,33,25,17,81,40,17,30.48,30.25,20,5,21,0.00
2013-3-27,68,57,47,50,40,28,69,54,40,30.27,30.09,22,12,29,0.00
2013-3-28,71,62,55,59,55,49,88,78,66,30.15,30.06,20,10,25,0.00
2013-3-29,76,66,59,59,57,56,91,75,53,30.12,29.99,19,9,24,0.00
2013-3-30,80,70,63,63,61,57,87,73,53,30.03,29.81,16,7,24,0.00
2013-3-31,77,70,65,67,64,57,92,81,69,29.93,29.82,14,4,17,0.02
2013-4-1,83,71,57,65,60,55,94,72,45,30.01,29.83,13,5,21,0.00
2013-4-2,73,66,51,65,62,48,93,87,75,29.98,29.81,22,8,37,0.87
2013-4-3,59,50,48,56,48,45,95,92,88,30.15,29.81,27,10,32,0.13
2013-4-4,60,51,45,46,43,40,89,76,59,30.24,30.11,16,8,22,0.00
2013-4-5,68,52,40,52,45,38,95,77,52,30.27,30.02,15,5,22,0.01
2013-4-6,78,66,53,59,54,47,85,67,52,30.02,29.79,21,11,25,0.00
2013-4-7,79,69,62,65,62,58,88,77,60,29.85,29.67,27,11,30,0.00
2013-4-8,72,69,66,67,64,61,90,84,79,29.74,29.60,27,13,31,0.00
2013-4-9,82,74,69,68,67,64,91,78,61,29.64,29.52,26,14,34,0.00
2013-4-10,74,53,42,68,47,39,90,79,56,29.97,29.59,29,11,30,0.05
2013-4-11,68,56,45,45,39,33,76,56,35,29.99,29.78,12,6,18,0.00
2013-4-12,79,64,49,50,47,44,89,58,30,29.98,29.80,15,5,18,0.00
2013-4-13,76,66,57,59,53,48,82,64,43,29.91,29.74,18,8,21,0.03
2013-4-14,92,72,59,64,59,53,90,68,26,29.77,29.51,16,8,24,0.00
2013-4-15,86,76,69,67,65,61,90,70,46,29.72,29.60,18,10,22,0.00
2013-4-16,86,75,69,69,66,63,86,74,56,29.82,29.71,23,12,28,0.00
2013-4-17,81,76,72,71,69,67,92,80,65,29.80,29.60,25,15,32,0.00
2013-4-18,75,61,49,71,50,35,91,69,46,30.10,29.56,26,12,29,0.25
2013-4-19,66,53,41,40,33,25,86,51,22,30.31,30.09,12,5,21,0.00
2013-4-20,71,60,49,47,35,30,61,40,23,30.20,29.95,24,11,31,0.00
2013-4-21,77,64,53,59,52,47,83,67,45,30.12,29.96,24,10,30,0.00
2013-4-22,81,70,58,62,59,55,88,69,48,30.04,29.80,18,10,25,0.00
2013-4-23,72,62,49,64,54,41,86,75,62,30.13,29.76,20,11,25,0.00
2013-4-24,63,53,42,41,36,32,80,56,37,30.29,30.13,22,10,27,0.00
2013-4-25,67,60,53,48,44,39,80,57,44,30.32,30.14,13,6,14,0.04
2013-4-26,78,68,60,67,61,45,92,79,50,30.13,29.96,21,8,25,0.00
2013-4-27,83,74,67,69,64,57,95,74,51,30.03,29.88,13,5,19,0.00
2013-4-28,86,75,65,65,61,56,93,66,38,29.98,29.77,16,6,21,0.00
2013-4-29,84,73,66,67,63,59,93,72,44,29.87,29.71,24,8,39,0.00
2013-4-30,84,73,65,65,64,62,92,73,50,29.78,29.65,17,8,18,0.00
2013-5-1,88,77,67,68,66,64,90,70,47,29.89,29.70,15,8,19,0.00
2013-5-2,76,50,47,65,43,38,90,76,65,30.37,29.92,23,12,32,0.06
2013-5-3,68,55,42,44,34,28,80,51,23,30.37,30.05,22,7,25,0.00
2013-5-4,82,64,45,44,38,30,84,44,16,30.05,29.85,11,3,21,0.00
2013-5-5,75,63,51,49,42,32,67,49,31,30.13,29.96,14,5,18,0.00
2013-5-6,74,69,57,53,50,47,74,51,41,30.12,29.96,6,2,8,0.00
2013-5-7,81,77,72,58,55,51,60,47,36,29.92,29.86,12,6,15,0.00
2013-5-8,79,72,63,65,62,55,86,71,56,29.95,29.81,22,10,27,0.00
2013-5-9,73,70,62,69,65,60,94,86,74,29.96,29.78,19,6,33,0.30
2013-5-10,84,71,64,68,64,60,95,78,49,30.00,29.79,23,6,30,0.85
2013-5-11,78,74,67,56,53,50,67,49,37,30.12,30.04,15,6,19,0.01
2013-5-12,78,68,58,58,52,47,87,59,34,30.25,30.09,16,5,25,0.00
2013-5-13,85,70,53,58,52,46,90,57,27,30.23,30.08,14,4,18,0.00
2013-5-14,85,74,64,67,60,53,77,62,35,30.16,29.92,21,9,26,0.00
2013-5-15,75,73,71,67,67,66,86,80,76,30.01,29.96,16,12,28,0.01
2013-5-16,88,81,72,73,72,68,90,74,61,29.76,29.64,19,11,23,0.06
2013-5-17,91,82,74,74,72,70,91,74,52,29.79,29.69,18,10,24,0.00
2013-5-18,91,81,73,72,69,65,87,68,48,29.83,29.69,33,12,35,0.00
2013-5-19,89,80,72,72,69,65,87,69,54,29.76,29.63,22,13,32,0.00
2013-5-20,91,81,72,72,70,67,88,70,50,29.76,29.59,24,13,27,0.00
2013-5-21,87,77,69,73,68,57,87,74,61,29.83,29.64,19,10,26,0.00
2013-5-22,91,76,57,68,58,52,93,60,28,29.89,29.74,11,4,16,0.00
2013-5-23,88,80,74,73,72,69,90,76,59,29.97,29.81,20,10,25,0.00
2013-5-24,79,74,68,73,69,66,92,85,77,30.06,29.93,16,8,20,0.88
2013-5-25,81,74,70,71,69,66,95,85,69,30.08,29.96,21,10,32,0.56
2013-5-26,86,78,72,73,70,69,92,79,63,30.02,29.88,21,11,26,0.00
2013-5-27,86,78,72,72,70,68,88,78,60,29.93,29.75,23,13,28,0.00
2013-5-28,87,79,73,72,69,67,85,73,58,29.82,29.68,26,16,33,0.00
2013-5-29,84,78,74,74,71,68,89,79,65,29.77,29.61,30,16,44,0.04
2013-5-30,86,80,75,73,71,69,85,76,64,29.76,29.66,26,12,34,0.00
2013-5-31,90,82,76,76,73,71,86,74,61,29.79,29.66,22,12,28,0.00
2013-6-1,93,84,76,75,73,71,85,71,50,29.85,29.69,23,10,32,0.00
2013-6-2,88,79,71,73,64,59,78,61,38,30.02,29.84,15,6,23,0.00
2013-6-3,92,79,66,67,64,59,85,60,35,29.93,29.76,13,6,16,0.00
2013-6-4,91,82,72,69,67,63,88,63,44,29.83,29.71,19,9,25,0.00
2013-6-5,93,82,71,71,68,65,88,64,41,29.83,29.68,21,8,30,0.00
2013-6-6,93,82,75,70,66,60,80,60,33,29.88,29.72,15,6,24,0.00
2013-6-7,85,76,69,65,60,52,86,61,32,29.98,29.82,11,5,14,0.00
2013-6-8,88,76,67,70,61,55,73,60,44,29.89,29.72,15,7,24,0.00
2013-6-9,88,76,67,71,69,64,92,80,52,29.91,29.77,20,6,26,0.20
2013-6-10,95,82,73,71,67,57,89,64,29,29.94,29.83,13,6,19,0.00
2013-6-11,93,83,75,73,70,66,90,68,45,29.97,29.85,18,9,26,0.00
2013-6-12,94,83,75,73,71,68,89,69,42,29.99,29.86,20,9,24,0.00
2013-6-13,95,82,75,74,71,66,88,69,44,30.00,29.86,25,7,28,0.00
2013-6-14,88,81,76,73,72,70,86,73,55,29.94,29.85,12,4,14,0.00
2013-6-15,89,82,78,74,72,69,86,72,53,29.94,29.82,12,5,16,0.00
2013-6-16,94,85,76,73,70,67,85,64,41,29.95,29.82,16,6,18,0.00
2013-6-17,96,85,77,74,71,68,85,64,40,29.94,29.76,14,7,23,0.00
2013-6-18,86,80,70,74,70,65,92,73,60,29.91,29.83,14,7,24,1.48
2013-6-19,94,84,76,73,71,69,88,65,45,29.90,29.83,15,8,19,0.00
2013-6-20,92,84,76,72,70,66,82,63,43,29.98,29.86,16,10,25,0.00
2013-6-21,93,85,77,73,70,64,84,62,41,30.00,29.88,28,11,28,0.00
2013-6-22,93,84,76,72,69,63,84,62,37,29.97,29.80,18,11,27,0.00
2013-6-23,92,84,75,72,67,61,85,60,35,29.91,29.80,24,12,32,0.00
2013-6-24,95,85,76,71,70,65,84,62,41,29.96,29.80,29,13,32,0.00
2013-6-25,95,86,78,72,70,65,81,61,39,29.92,29.77,22,13,27,0.00
2013-6-26,96,89,80,75,72,69,76,57,42,29.90,29.79,15,9,21,0.00
2013-6-27,100,94,84,68,62,54,55,36,22,29.89,29.82,10,4,13,0.00
2013-6-28,102,89,77,75,67,60,77,51,26,29.92,29.73,9,4,13,0.00
2013-6-29,104,92,79,73,66,57,69,46,21,29.81,29.66,14,4,16,0.00
2013-6-30,92,84,71,71,66,61,90,58,39,29.90,29.74,15,5,26,0.28
2013-7-1,86,80,73,62,56,50,59,44,29,29.98,29.84,15,7,21,0.00
2013-7-2,90,79,67,59,52,42,72,42,19,30.04,29.91,15,5,17,0.00
2013-7-3,92,82,67,58,52,45,67,37,20,30.00,29.84,12,4,15,0.00
2013-7-4,92,81,72,65,60,52,74,50,27,29.93,29.82,12,5,16,0.00
2013-7-5,96,85,73,67,61,53,73,47,24,29.93,29.76,16,8,19,0.00
2013-7-6,95,84,75,69,66,58,77,57,30,29.87,29.74,18,7,25,0.00
2013-7-7,96,85,76,73,70,63,84,62,34,29.91,29.80,23,9,35,0.00
2013-7-8,87,81,77,75,72,68,86,75,56,30.04,29.91,15,8,22,0.00
2013-7-9,96,85,75,73,70,64,88,63,36,30.09,29.92,16,7,23,0.00
2013-7-10,100,85,76,73,71,63,86,65,30,30.02,29.90,19,7,19,0.00
2013-7-14,90,81,69,69,66,62,92,61,44,29.86,29.78,24,10,31,1.26
2013-7-15,74,70,67,72,68,65,95,93,87,29.98,29.82,23,10,32,3.16
2013-7-16,86,78,72,74,72,70,94,83,58,30.09,29.98,17,9,22,0.18
2013-7-17,87,75,71,74,71,69,94,87,58,30.14,30.04,33,5,36,0.96
2013-7-18,90,80,72,73,70,66,94,75,47,30.13,29.94,12,4,16,0.00
2013-7-19,92,82,73,73,69,64,91,67,40,30.02,29.84,17,4,22,0.00
2013-7-20,92,82,75,72,70,66,87,68,43,29.94,29.77,14,6,21,0.00
2013-7-21,93,82,76,76,72,69,88,75,47,29.88,29.79,21,7,30,0.00
2013-7-22,94,85,78,75,73,70,87,70,49,29.92,29.80,20,10,31,0.00
2013-7-23,94,85,79,75,72,66,83,67,40,29.92,29.78,14,9,21,0.00
2013-7-24,94,85,77,75,74,71,86,69,49,29.93,29.80,18,6,19,0.00
2013-7-25,96,86,78,73,72,69,84,65,42,29.96,29.87,10,5,16,0.00
2013-7-26,97,87,78,75,72,67,78,62,39,29.94,29.78,14,6,21,0.00
2013-7-27,89,82,76,73,70,65,81,67,45,29.94,29.83,11,7,17,0.00
2013-7-28,93,83,73,75,71,68,88,70,47,29.90,29.77,16,6,21,0.00
2013-7-29,95,86,79,75,71,63,83,64,35,29.93,29.84,21,12,29,0.00
2013-7-30,96,86,77,74,71,67,83,63,40,30.01,29.88,21,11,24,0.00
2013-7-31,99,87,77,72,68,62,80,55,30,30.02,29.85,15,5,22,0.00
2013-8-1,99,88,80,73,70,66,73,55,34,29.96,29.81,9,5,13,0.00
2013-8-2,98,88,80,71,67,60,67,51,30,29.90,29.79,18,6,21,0.00
2013-8-3,97,87,78,72,70,66,80,58,37,29.94,29.84,15,9,24,0.00
2013-8-4,95,87,78,74,72,70,82,63,45,30.00,29.85,20,8,22,0.00
2013-8-5,98,87,78,73,69,63,75,57,33,29.96,29.78,23,8,27,0.00
2013-8-6,99,88,77,74,71,66,79,58,35,29.87,29.71,17,9,26,0.00
2013-8-7,101,88,77,75,71,64,83,59,32,29.84,29.69,21,9,23,0.00
2013-8-8,100,88,77,74,69,60,83,57,27,29.82,29.69,17,8,26,0.00
2013-8-9,99,87,77,72,67,59,83,54,27,29.89,29.78,17,6,22,0.00
2013-8-10,100,89,78,73,69,62,77,54,31,29.98,29.85,26,5,27,0.00
2013-8-11,96,86,78,76,72,68,79,63,42,30.01,29.88,25,5,31,0.00
2013-8-12,95,85,76,73,70,67,85,63,41,30.00,29.85,15,7,20,0.00
2013-8-13,99,89,79,72,69,62,74,54,30,29.96,29.80,12,6,15,0.00
2013-8-14,96,84,78,78,72,66,82,68,48,29.94,29.83,13,4,17,0.37
2013-8-15,88,79,72,80,73,66,90,82,63,29.96,29.85,14,5,17,0.77
2013-8-16,88,77,70,79,71,67,92,81,58,30.03,29.88,16,4,28,0.01
2013-8-17,91,81,72,75,67,61,82,65,40,30.02,29.88,12,5,16,0.00
2013-8-18,92,82,71,68,63,60,69,54,35,30.01,29.91,11,4,14,0.00
2013-8-19,92,83,74,72,66,61,69,56,43,30.00,29.84,10,4,15,0.00
2013-8-20,93,84,73,69,65,61,71,54,36,29.97,29.86,17,7,27,0.00
2013-8-21,91,82,74,76,70,66,81,69,55,30.03,29.89,15,6,29,0.00
2013-8-22,94,86,76,77,71,68,81,64,45,30.03,29.85,13,4,18,0.00
2013-8-23,95,86,77,77,71,67,77,62,44,29.96,29.82,12,4,17,0.00
2013-8-24,95,86,76,75,70,65,72,59,47,29.99,29.86,15,4,19,0.00
2013-8-25,93,86,77,75,70,67,75,60,45,30.03,29.94,17,6,20,0.00
2013-8-26,90,81,75,73,70,66,79,68,54,30.08,29.95,22,8,22,0.00
2013-8-27,82,77,72,76,70,67,87,81,74,30.06,29.96,14,7,21,0.51
2013-8-28,94,82,74,78,72,68,87,73,53,30.07,29.93,8,4,12,0.00
2013-8-29,98,86,76,77,70,65,77,60,40,30.04,29.89,8,2,9,0.00
2013-8-30,99,86,76,76,68,63,70,56,37,29.97,29.80,9,2,11,0.00
2013-8-31,99,86,79,74,69,64,67,58,40,29.87,29.74,8,3,11,0.00
2013-9-9,90,83,76,72,69,66,75,63,51,29.92,29.83,24,11,30,0.00
2013-9-10,89,80,74,75,70,68,85,73,57,30.01,29.90,18,8,33,0.00
2013-9-11,92,82,75,75,70,64,84,67,46,30.05,29.92,13,6,16,0.00
2013-9-12,93,83,73,74,68,62,77,60,40,30.02,29.85,8,2,14,0.00
2013-9-13,95,85,75,74,66,60,71,55,36,29.91,29.74,12,3,17,0.00
2013-9-14,94,84,74,71,65,60,65,53,40,29.88,29.77,16,4,22,0.00
2013-9-15,90,83,76,73,70,67,78,64,52,29.96,29.85,13,6,17,0.00
2013-9-16,90,80,75,73,69,64,82,69,51,30.01,29.89,14,5,24,1.20
2013-9-17,87,80,75,77,72,70,86,77,64,30.02,29.87,11,3,14,0.01
2013-9-18,90,82,75,75,70,67,83,69,52,29.96,29.80,14,5,19,0.01
2013-9-19,86,79,74,78,72,69,87,80,67,29.90,29.77,18,5,42,0.97
2013-9-20,78,74,71,75,71,68,91,89,87,29.85,29.75,22,6,24,0.72
2013-9-21,82,73,66,68,62,50,90,72,46,29.93,29.81,16,8,21,0.72
2013-9-22,82,70,59,61,54,49,72,57,39,29.89,29.75,10,4,12,0.00
2013-9-23,86,72,60,64,55,49,70,57,40,29.81,29.70,7,1,11,0.00
2013-9-24,91,77,63,70,60,53,74,58,41,29.89,29.78,7,2,9,0.00
2013-9-25,93,80,67,71,64,57,74,59,43,29.85,29.70,11,3,15,0.00
2013-9-26,89,81,71,67,61,54,67,51,37,29.83,29.74,15,6,19,0.00
2013-9-27,86,79,74,77,72,68,85,80,69,29.85,29.75,33,7,33,0.32
2013-9-28,88,79,70,79,73,65,88,83,73,29.97,29.79,0,0,0,0.10
2013-9-29,76,68,62,69,63,59,89,84,76,30.03,29.90,9,2,13,0.22
2013-9-30,85,71,58,71,62,53,87,73,52,29.93,29.76,8,2,10,0.01
2013-10-1,86,78,67,74,67,56,81,70,59,29.86,29.77,15,6,18,0.01
2013-10-2,88,80,75,76,72,69,87,76,61,29.90,29.78,19,9,22,0.00
2013-10-3,88,81,75,74,71,68,85,73,57,29.86,29.75,22,10,26,0.00
2013-10-4,88,80,74,73,70,68,82,71,57,29.84,29.75,20,10,25,0.00
2013-10-5,82,76,74,75,70,67,83,80,75,29.93,29.81,15,6,21,0.00
2013-10-6,58,29,58,38,-31,-100,47,24,47,30.09,30.09,3,-498,3,0.00
2013-10-7,84,66,48,57,46,37,69,51,33,30.16,30.00,7,2,13,0.00
2013-10-8,84,71,57,59,50,44,65,49,35,30.05,29.91,14,4,18,0.00
2013-10-9,82,72,62,63,56,47,69,58,47,30.02,29.89,17,6,21,0.00
2013-10-10,83,74,66,69,63,58,82,70,58,29.98,29.81,19,9,26,0.00
2013-10-11,85,78,72,74,70,64,84,75,65,29.88,29.76,19,8,25,0.00
2013-10-12,88,80,71,78,72,64,87,79,65,29.97,29.83,19,6,27,0.27
2013-10-13,75,71,68,71,67,64,89,87,83,30.12,29.96,16,7,26,0.01
2013-10-14,80,74,72,75,71,69,91,89,81,30.04,29.85,16,8,22,0.01
2013-10-15,77,70,55,73,66,52,90,88,87,30.00,29.84,16,6,24,0.16
2013-10-16,64,58,53,61,55,51,92,90,84,30.08,29.97,16,6,16,0.49
2013-10-17,72,62,52,61,54,48,86,76,60,30.12,29.95,9,4,12,0.49
2013-10-18,71,65,55,63,57,49,81,75,69,30.03,29.84,22,6,33,0.00
2013-10-19,65,55,46,53,46,41,83,73,57,30.21,30.04,18,6,27,0.00
2013-10-20,73,60,48,56,48,39,76,65,54,30.09,29.86,17,5,22,0.00
2013-10-21,75,66,59,67,58,51,80,75,65,30.07,29.88,12,6,20,0.00
2013-10-22,74,62,52,57,50,41,80,67,47,30.17,30.05,15,4,18,0.00
2013-10-23,80,63,48,61,48,39,75,60,42,30.16,30.04,7,2,9,0.00
2013-10-24,80,66,51,61,50,42,74,58,42,30.20,30.09,8,2,10,0.00
2013-10-25,76,68,57,62,56,45,73,66,56,30.28,30.16,13,6,18,0.00
2013-10-26,78,70,65,69,63,59,86,79,70,30.17,30.00,17,8,23,0.00
2013-10-27,70,65,62,62,60,56,85,83,77,30.09,29.97,9,2,11,0.09
2013-10-28,79,71,65,72,66,61,90,83,72,30.03,29.91,23,9,24,0.09
2013-10-29,81,75,71,73,68,65,88,81,72,30.01,29.90,20,9,26,0.00
2013-10-30,79,74,71,74,70,67,90,87,81,29.97,29.74,13,3,18,0.10
2013-10-31,78,71,56,70,60,40,91,70,44,29.85,29.68,16,4,26,0.01
2013-11-1,81,63,47,58,45,38,72,55,36,30.08,29.80,14,3,22,0.01
2013-11-2,71,61,52,49,41,34,60,48,35,30.29,30.09,11,4,16,0.00
2013-11-3,68,59,46,51,41,32,65,53,44,30.21,29.96,17,7,22,0.00
2013-11-4,64,62,60,61,56,51,88,80,67,30.01,29.91,17,6,25,0.08
2013-11-5,74,69,64,69,65,61,91,88,83,29.98,29.85,13,6,17,0.02
2013-11-6,70,59,51,67,55,43,90,85,74,30.33,29.92,21,6,27,0.21
2013-11-7,64,54,44,48,42,36,76,65,52,30.49,30.34,10,4,14,0.21
2013-11-8,63,57,50,45,42,40,67,58,47,30.38,30.12,12,4,15,0.00
2013-11-9,67,61,57,57,52,43,79,70,58,30.16,30.06,16,7,19,0.00
2013-11-10,69,61,54,62,55,49,85,81,78,30.29,30.15,7,2,9,0.00
2013-11-11,72,61,50,62,54,46,87,78,67,30.27,30.13,5,1,9,0.01
2013-11-12,59,51,40,52,44,29,83,76,65,30.65,30.23,18,8,27,0.01
2013-11-13,55,44,33,40,31,23,68,61,53,30.66,30.39,10,4,14,0.00
2013-11-14,61,49,41,43,34,27,61,57,43,30.39,30.02,15,5,21,0.00
2013-11-15,77,64,54,63,53,43,77,69,59,30.02,29.80,14,4,16,0.00
2013-11-16,74,69,62,66,62,55,83,79,74,29.84,29.68,18,7,22,0.00
2013-11-17,87,74,58,74,62,43,88,69,43,29.92,29.72,9,1,16,0.00
2013-11-18,73,65,56,55,49,43,65,57,52,30.08,29.91,11,4,15,0.00
2013-11-19,72,63,55,50,46,41,65,54,45,30.13,29.95,13,5,16,0.00
2013-11-20,70,64,58,62,56,49,85,76,65,29.97,29.84,15,7,18,0.00
2013-11-21,76,70,58,71,66,53,89,85,81,30.08,29.88,17,4,25,0.15
2013-11-22,55,39,35,51,36,32,89,88,85,30.44,30.07,21,11,30,0.25
2013-11-23,40,38,35,38,35,32,90,90,89,30.52,30.43,17,9,21,0.01
2013-11-24,40,37,33,37,33,29,89,85,82,30.53,30.34,14,7,19,0.08
2013-11-25,41,37,34,38,34,30,88,87,86,30.36,30.11,15,4,19,0.14
2013-11-26,52,43,37,45,37,33,87,81,71,30.38,30.15,19,9,25,0.01
2013-11-27,50,40,30,38,30,22,74,68,60,30.51,30.36,21,3,22,0.01
2013-11-28,54,44,36,38,31,26,70,63,53,30.45,30.33,8,3,11,0.00
2013-11-29,59,48,34,51,40,25,82,75,61,30.51,30.34,9,3,16,0.00
2013-11-30,63,57,52,56,51,46,85,81,79,30.35,30.15,11,5,15,0.00
2013-12-1,69,61,57,62,56,52,88,84,78,30.17,29.91,11,4,18,0.00
2013-12-2,69,56,50,62,52,46,87,86,79,29.92,29.78,10,1,13,0.00
2013-12-3,68,60,56,40,38,35,50,44,37,29.65,29.60,0,0,4,0.00
2013-12-4,80,63,51,63,50,38,77,64,51,29.75,29.61,10,1,12,0.00
2013-12-5,62,40,30,55,33,24,79,75,70,30.13,29.74,21,9,26,0.00
2013-12-6,33,31,28,28,26,22,83,81,78,30.50,30.10,16,8,21,0.03
2013-12-7,28,26,24,23,21,19,81,80,80,30.53,30.30,15,7,21,0.00
2013-12-8,43,34,27,39,30,22,86,84,81,30.30,30.04,6,1,10,0.03
2013-12-9,37,34,32,33,31,30,89,88,85,30.43,30.07,14,6,20,0.02
2013-12-10,45,35,25,39,30,22,88,83,77,30.54,30.35,14,4,20,0.02
2013-12-11,54,42,32,44,34,25,79,72,66,30.58,30.33,9,3,12,0.00
2013-12-12,51,41,32,40,32,23,73,69,65,30.61,30.30,8,2,11,0.00
2013-12-13,48,46,43,44,39,34,86,77,68,30.30,29.87,11,4,16,0.12
2013-12-14,50,43,38,45,39,32,88,84,79,30.36,29.85,19,4,22,0.01
2013-12-15,58,43,31,46,35,26,83,74,63,30.41,30.26,6,1,8,0.01
2013-12-16,67,48,33,52,37,27,78,67,56,30.30,30.16,5,1,6,0.01
2013-12-17,69,50,35,51,37,27,73,62,49,30.32,30.22,4,1,7,0.01
2013-12-18,67,51,37,56,41,27,75,68,60,30.28,30.02,15,3,21,0.00
2013-12-19,68,62,56,59,55,48,82,77,72,30.02,29.76,30,9,36,0.00
2013-12-20,69,64,46,64,60,42,88,85,82,29.80,29.60,22,4,31,0.02
2013-12-21,65,50,40,58,45,36,91,82,67,29.80,29.56,13,3,25,0.82
2013-12-22,49,44,38,41,37,29,81,75,70,30.39,29.81,17,6,22,0.01
2013-12-23,53,40,29,41,31,22,77,69,60,30.54,30.38,6,2,8,0.01
2013-12-24,58,45,34,42,32,25,72,62,49,30.54,30.25,19,5,22,0.00
2013-12-25,60,49,41,51,40,30,78,72,59,30.42,30.23,16,4,20,0.00
2013-12-26,53,44,35,44,36,28,78,73,68,30.44,30.32,7,2,10,0.00
2013-12-27,56,52,45,46,42,35,80,69,63,30.44,30.32,5,1,7,0.00
2013-12-28,61,50,42,50,42,33,80,72,67,30.32,29.98,11,3,13,0.00
2013-12-29,56,47,32,50,42,27,83,81,79,30.32,29.94,25,6,30,0.00
2013-12-30,46,38,31,38,30,25,83,76,68,30.41,30.26,13,4,17,0.00
2013-12-31,56,44,33,41,33,25,75,67,58,30.48,30.23,10,3,15,0.00
2014-1-1,68,52,41,54,42,30,73,67,61,30.22,29.94,22,5,25,0.00
2014-1-2,51,40,32,41,29,20,70,64,57,30.47,30.14,20,8,28,0.00